EW7937 Weather Reports


Display with metric or nautical units.
time (UTC)temp
F
wind
direction
speed
MPH
gust
MPH
rain 1hr
in
rain 24hr
in
rain mn
in
humidity
%
barometer
mb
20260901043204 79 301 0.0 7.0 0.00 0.00 0.00 41 1010.3
20260901042705 79 307 0.0 9.0 0.00 0.00 0.00 41 1010.4
20260901042203 79 298 1.0 9.0 0.00 0.00 0.00 40 1010.4
20260901041705 80 325 0.0 9.0 0.00 0.00 0.00 40 1010.2
20260901041203 80 294 1.0 9.0 0.00 0.00 0.00 39 1010.2
20260901040704 80 298 0.0 8.0 0.00 0.00 0.00 38 1010.1
20260901040205 81 319 1.0 10.0 0.00 0.00 0.00 38 1010.0
20260901035704 81 300 0.0 10.0 0.00 0.00 0.00 38 1009.9
20260901035205 81 305 0.0 8.0 0.00 0.00 0.00 37 1009.7
20260901034703 82 290 0.0 8.0 0.00 0.00 0.00 37 1009.7
20260901034202 82 282 1.0 10.0 0.00 0.00 0.00 37 1009.7
20260901033702 82 289 2.0 10.0 0.00 0.00 0.00 36 1009.7
20260901033202 83 304 0.0 7.0 0.00 0.00 0.00 36 1009.6
20260901032706 83 290 0.0 7.0 0.00 0.00 0.00 36 1009.6
20260901032204 83 298 0.0 7.0 0.00 0.00 0.00 35 1009.5
20260901031705 84 313 0.0 1.0 0.00 0.00 0.00 35 1009.4
20260901031204 84 313 0.0 13.0 0.00 0.00 0.00 35 1009.4
20260901030702 84 309 3.0 13.0 0.00 0.00 0.00 34 1009.3
20260901030449 85 304 0.0 0.0 0.00 0.00 0.00 34 1009.3
20260901025935 85 304 0.0 0.0 0.00 0.00 0.00 34 1009.2
20260901025443 86 304 0.0 3.0 0.00 0.00 0.00 33 1009.2
20260901024938 86 304 0.0 3.0 0.00 0.00 0.00 33 1009.2
20260901024204 86 332 0.0 1.0 0.00 0.00 0.00 33 1009.2
20260901023704 87 323 0.0 8.0 0.00 0.00 0.00 33 1009.1
20260901023203 87 323 1.0 8.0 0.00 0.00 0.00 32 1009.1
20260901022705 87 302 0.0 4.0 0.00 0.00 0.00 32 1009.1
20260901022205 87 240 0.0 0.0 0.00 0.00 0.00 31 1009.1
20260901021702 88 240 0.0 0.0 0.00 0.00 0.00 31 1009.1
20260901021205 88 240 0.0 0.0 0.00 0.00 0.00 30 1009.1
20260901020704 89 240 0.0 0.0 0.00 0.00 0.00 29 1008.9
20260901020438 0 0.0 0.0 0.00 0.00 0.00
20260901015957 90 240 0.0 0.0 0.00 0.00 0.00 28 1008.9
20260901015714 90 240 0.0 0.0 0.00 0.00 0.00 28 1008.9
20260901014656 90 240 0.0 0.0 0.00 0.00 0.00 28 1008.8
20260901014145 90 240 0.0 0.0 0.00 0.00 0.00 28 1008.8
20260901013630 91 240 0.0 0.0 0.00 0.00 0.00 26 1008.8
20260901013133 91 240 0.0 0.0 0.00 0.00 0.00 27 1008.8
20260901012631 91 240 0.0 2.0 0.00 0.00 0.00 26 1008.9
20260901012132 91 240 0.0 2.0 0.00 0.00 0.00 26 1008.8
20260901011633 92 161 0.0 0.0 0.00 0.00 0.00 27 1008.9
20260901011133 92 161 0.0 0.0 0.00 0.00 0.00 26 1008.9
20260901010633 92 161 0.0 0.0 0.00 0.00 0.00 26 1008.8
20260901010406 92 161 0.0 0.0 0.00 0.00 0.00 26 1008.9
20260901005611 92 161 0.0 0.0 0.00 0.00 0.00 25 1008.9
20260901005347 93 161 0.0 0.0 0.00 0.00 0.00 25 1009.0
20260901004604 93 161 0.0 0.0 0.00 0.00 0.00 26 1009.1
20260901004103 93 161 0.0 0.0 0.00 0.00 0.00 25 1009.1
20260901003837 94 161 0.0 0.0 0.00 0.00 0.00 25 1009.1
20260901003102 94 161 0.0 0.0 0.00 0.00 0.00 25 1009.1
20260901002603 94 161 0.0 8.0 0.00 0.00 0.00 24 1009.2
20260901002105 94 161 0.0 8.0 0.00 0.00 0.00 24 1009.2
20260901001605 94 205 0.0 0.0 0.00 0.00 0.00 25 1009.3
20260901001103 94 205 0.0 0.0 0.00 0.00 0.00 24 1009.3
20260901000602 94 205 0.0 0.0 0.00 0.00 0.00 24 1009.4
20260901000344 94 205 0.0 0.0 0.00 0.00 0.00 26 1009.3
20260831235603 94 205 0.0 0.0 0.00 0.00 0.00 24 1009.3
20260831235103 94 205 0.0 0.0 0.00 0.00 0.00 24 1009.4
20260831234601 94 205 0.0 0.0 0.00 0.00 0.00 24 1009.5
20260831234058 94 205 0.0 0.0 0.00 0.00 0.00 24 1009.5
20260831233553 95 205 0.0 0.0 0.00 0.00 0.00 23 1009.6
20260831233327 95 205 0.0 0.0 0.00 0.00 0.00 23 1009.5
20260831232543 95 205 0.0 0.0 0.00 0.00 0.00 22 1009.5
20260831232039 95 205 0.0 0.0 0.00 0.00 0.00 25 1009.7
20260831231534 95 205 0.0 0.0 0.00 0.00 0.00 23 1009.7
20260831231032 95 205 0.0 0.0 0.00 0.00 0.00 23 1009.7
20260831230532 95 205 0.0 0.0 0.00 0.00 0.00 23 1009.8
20260831230305 96 205 0.0 5.0 0.00 0.00 0.00 23 1009.8
20260831225533 96 205 0.0 5.0 0.00 0.00 0.00 23 1009.8
20260831225033 96 222 0.0 0.0 0.00 0.00 0.00 24 1009.9
20260831224534 96 222 0.0 0.0 0.00 0.00 0.00 24 1010.0
20260831224032 96 222 0.0 0.0 0.00 0.00 0.00 24 1010.1
20260831223532 96 222 0.0 0.0 0.00 0.00 0.00 24 1010.1
20260831223032 96 222 0.0 0.0 0.00 0.00 0.00 23 1010.2
20260831222824 96 222 0.0 0.0 0.00 0.00 0.00 23 1010.2
20260831222033 96 222 0.0 0.0 0.00 0.00 0.00 24 1010.3
20260831221532 96 222 0.0 0.0 0.00 0.00 0.00 23 1010.3
20260831221318 96 222 0.0 0.0 0.00 0.00 0.00 24 1010.4
20260831220533 96 222 0.0 0.0 0.00 0.00 0.00 23 1010.4
20260831220315 96 222 0.0 0.0 0.00 0.00 0.00 22 1010.5
20260831215532 96 222 0.0 0.0 0.00 0.00 0.00 24 1010.6
20260831215033 95 222 0.0 1.0 0.00 0.00 0.00 24 1010.7
20260831214534 95 222 0.0 1.0 0.00 0.00 0.00 25 1010.8
20260831214018 95 270 0.0 0.0 0.00 0.00 0.00 24 1010.8
20260831213513 94 270 0.0 0.0 0.00 0.00 0.00 27 1010.9
20260831213009 94 270 0.0 0.0 0.00 0.00 0.00 25 1011.0
20260831212505 94 270 0.0 0.0 0.00 0.00 0.00 24 1011.0
20260831212003 94 270 0.0 0.0 0.00 0.00 0.00 25 1011.1
20260831211504 94 270 0.0 0.0 0.00 0.00 0.00 26 1011.1
20260831211004 94 270 0.0 0.0 0.00 0.00 0.00 25 1011.2
20260831210504 93 270 0.0 0.0 0.00 0.00 0.00 26 1011.2
20260831210004 93 270 0.0 0.0 0.00 0.00 0.00 25 1011.1
20260831205503 93 270 0.0 0.0 0.00 0.00 0.00 26 1011.2
20260831205002 93 270 0.0 0.0 0.00 0.00 0.00 25 1011.2
20260831204503 93 270 0.0 0.0 0.00 0.00 0.00 26 1011.3
20260831204006 93 270 0.0 0.0 0.00 0.00 0.00 26 1011.4
20260831203750 93 270 0.0 3.0 0.00 0.00 0.00 26 1011.4
20260831203005 92 270 0.0 3.0 0.00 0.00 0.00 27 1011.5
20260831202748 92 202 0.0 0.0 0.00 0.00 0.00 29 1011.4
20260831202003 92 202 0.0 0.0 0.00 0.00 0.00 28 1011.4
20260831201746 92 202 0.0 0.0 0.00 0.00 0.00 29 1011.6
20260831201005 92 202 0.0 0.0 0.00 0.00 0.00 28 1011.7
20260831200504 92 202 0.0 0.0 0.00 0.00 0.00 30 1011.8
20260831200004 92 202 0.0 0.0 0.00 0.00 0.00 28 1011.8
20260831195502 92 202 0.0 0.0 0.00 0.00 0.00 31 1011.8
20260831195256 91 202 0.0 0.0 0.00 0.00 0.00 31 1011.8
20260831194751 90 202 0.0 0.0 0.00 0.00 0.00 33 1011.9
20260831194004 90 202 0.0 0.0 0.00 0.00 0.00 36 1012.0
20260831193504 90 202 0.0 0.0 0.00 0.00 0.00 31 1012.0
20260831193242 89 202 0.0 0.0 0.00 0.00 0.00 33 1012.1
20260831192503 89 202 0.0 0.0 0.00 0.00 0.00 33 1012.1
20260831192002 89 202 0.0 0.0 0.00 0.00 0.00 34 1012.2
20260831191501 89 202 0.0 0.0 0.00 0.00 0.00 34 1012.3
20260831191236 89 202 0.0 0.0 0.00 0.00 0.00 35 1012.2
20260831190504 89 202 0.0 0.0 0.00 0.00 0.00 35 1012.3
20260831190005 88 202 0.0 0.0 0.00 0.00 0.00 35 1012.2
20260831185505 88 202 0.0 0.0 0.00 0.00 0.00 37 1012.3
20260831185312 87 202 0.0 0.0 0.00 0.00 0.00 38 1012.3
20260831185307 87 202 0.0 0.0 0.00 0.00 0.00 35 1012.3
20260831184005 87 202 0.0 0.0 0.00 0.00 0.00 36 1012.3
20260831183747 86 202 0.0 0.0 0.00 0.00 0.00 36 1012.4
20260831183235 86 202 0.0 0.0 0.00 0.00 0.00 36 1012.3
20260831182752 87 202 0.0 0.0 0.00 0.00 0.00 36 1012.4
20260831182003 86 202 0.0 0.0 0.00 0.00 0.00 39 1012.4
20260831181505 86 202 0.0 0.0 0.00 0.00 0.00 36 1012.3
20260831181005 85 202 0.0 0.0 0.00 0.00 0.00 37 1012.4
20260831180506 85 202 0.0 0.0 0.00 0.00 0.00 38 1012.3
20260831180002 85 202 0.0 0.0 0.00 0.00 0.00 39 1012.3
20260831175500 84 202 0.0 0.0 0.00 0.00 0.00 40 1012.3
20260831174959 84 202 0.0 0.0 0.00 0.00 0.00 39 1012.3
20260831174742 84 202 0.0 2.0 0.00 0.00 0.00 40 1012.4
20260831173953 83 202 0.0 2.0 0.00 0.00 0.00 40 1012.3
20260831173453 83 202 0.0 0.0 0.00 0.00 0.00 41 1012.4
20260831173224 83 202 0.0 0.0 0.00 0.00 0.00 41 1012.3
20260831172447 82 202 0.0 0.0 0.00 0.00 0.00 42 1012.3
20260831171935 82 202 0.0 0.0 0.00 0.00 0.00 43 1012.3
20260831171434 81 202 0.0 0.0 0.00 0.00 0.00 43 1012.3
20260831170933 81 202 0.0 0.0 0.00 0.00 0.00 43 1012.3
20260831170431 80 202 0.0 0.0 0.00 0.00 0.00 42 1012.2
20260831170212 80 202 0.0 0.0 0.00 0.00 0.00 45 1012.2
20260831165432 80 202 0.0 0.0 0.00 0.00 0.00 45 1012.2
20260831164933 79 202 0.0 0.0 0.00 0.00 0.00 46 1012.1
20260831164716 79 202 0.0 0.0 0.00 0.00 0.00 45 1012.1
20260831163933 78 202 0.0 0.0 0.00 0.00 0.00 46 1012.0
20260831163434 78 202 0.0 0.0 0.00 0.00 0.00 45 1012.0
20260831162933 78 202 0.0 0.0 0.00 0.00 0.00 47 1012.1
20260831162433 77 202 0.0 0.0 0.00 0.00 0.00 47 1012.1
20260831162215 77 202 0.0 0.0 0.00 0.00 0.00 48 1012.0
20260831161432 76 202 0.0 0.0 0.00 0.00 0.00 48 1012.2
20260831160931 76 202 0.0 2.0 0.00 0.00 0.00 48 1012.2
20260831160433 76 202 0.0 2.0 0.00 0.00 0.00 50 1012.1
20260831155932 75 202 0.0 2.0 0.00 0.00 0.00 50 1012.1
20260831155434 74 298 0.0 0.0 0.00 0.00 0.00 51 1012.0
20260831155214 74 298 0.0 0.0 0.00 0.00 0.00 51 1011.9
20260831154432 73 298 0.0 0.0 0.00 0.00 0.00 53 1011.9
20260831153931 72 298 0.0 0.0 0.00 0.00 0.00 54 1011.9
20260831153431 71 298 0.0 0.0 0.00 0.00 0.00 56 1011.8
20260831153225 70 298 0.0 0.0 0.00 0.00 0.00 57 1011.9
20260831152432 69 298 0.0 0.0 0.00 0.00 0.00 59 1011.9
20260831151931 68 298 0.0 0.0 0.00 0.00 0.00 60 1011.9
20260831151430 67 298 0.0 0.0 0.00 0.00 0.00 63 1011.9
20260831150931 66 298 0.0 0.0 0.00 0.00 0.00 64 1011.9
20260831150432 65 298 0.0 0.0 0.00 0.00 0.00 67 1011.8
20260831145932 64 298 0.0 0.0 0.00 0.00 0.00 67 1011.8
20260831145432 64 298 0.0 0.0 0.00 0.00 0.00 68 1011.8
20260831144931 64 298 0.0 0.0 0.00 0.00 0.00 69 1011.8
20260831144431 63 298 0.0 0.0 0.00 0.00 0.00 70 1011.7
20260831143931 63 298 0.0 0.0 0.00 0.00 0.00 70 1011.7
20260831143431 63 298 0.0 0.0 0.00 0.00 0.00 70 1011.7
20260831142934 63 298 0.0 0.0 0.00 0.00 0.00 70 1011.7
20260831142431 62 298 0.0 0.0 0.00 0.00 0.00 70 1011.6
20260831141932 62 298 0.0 0.0 0.00 0.00 0.00 70 1011.6
20260831141704 62 298 0.0 0.0 0.00 0.00 0.00 70 1011.3
20260831140931 62 298 0.0 0.0 0.00 0.00 0.00 69 1011.2
20260831140433 62 298 0.0 0.0 0.00 0.00 0.00 70 1011.2
20260831135932 62 298 0.0 0.0 0.00 0.00 0.00 71 1011.1
20260831135431 62 298 0.0 0.0 0.00 0.00 0.00 71 1011.1
20260831134934 61 298 0.0 0.0 0.00 0.00 0.00 71 1010.9
20260831134431 61 298 0.0 0.0 0.00 0.00 0.00 71 1011.0
20260831133933 62 298 0.0 0.0 0.00 0.00 0.00 71 1011.0
20260831133714 62 298 0.0 0.0 0.00 0.00 0.00 72 1010.9
20260831132932 62 298 0.0 0.0 0.00 0.00 0.00 72 1010.9
20260831132432 62 298 0.0 0.0 0.00 0.00 0.00 72 1010.8
20260831131930 62 298 0.0 0.0 0.00 0.00 0.00 72 1010.8
20260831131432 62 298 0.0 0.0 0.00 0.00 0.00 71 1010.9
20260831131214 62 298 0.0 0.0 0.00 0.00 0.00 71 1010.8
20260831130434 62 298 0.0 0.0 0.00 0.00 0.00 70 1010.8
20260831125933 62 298 0.0 0.0 0.00 0.00 0.00 69 1010.8
20260831125432 62 298 0.0 0.0 0.00 0.00 0.00 69 1010.8
20260831124931 62 298 0.0 0.0 0.00 0.00 0.00 68 1010.8
20260831124432 63 298 0.0 0.0 0.00 0.00 0.00 68 1010.8
20260831123931 63 298 0.0 0.0 0.00 0.00 0.00 67 1010.8
20260831123433 63 298 0.0 0.0 0.00 0.00 0.00 66 1010.7
20260831123217 63 298 0.0 0.0 0.00 0.00 0.00 66 1010.7
20260831122800 64 298 0.0 0.0 0.00 0.00 0.00 65 1010.6
20260831122452 63 298 0.0 0.0 0.00 0.00 0.00 65 1010.7
20260831121431 64 298 0.0 0.0 0.00 0.00 0.00 65 1010.5
20260831121216 64 298 0.0 0.0 0.00 0.00 0.00 65 1010.6
20260831120519 64 298 0.0 0.0 0.00 0.00 0.00 65 1010.6
20260831120457 64 298 0.0 0.0 0.00 0.00 0.00 66 1010.6
20260831115712 64 298 0.0 0.0 0.00 0.00 0.00 65 1010.6
20260831114932 64 298 0.0 0.0 0.00 0.00 0.00 65 1010.6
20260831114433 64 298 0.0 0.0 0.00 0.00 0.00 64 1010.6
20260831113931 64 298 0.0 0.0 0.00 0.00 0.00 65 1010.6
20260831113431 64 298 0.0 0.0 0.00 0.00 0.00 64 1010.6
20260831112931 65 298 0.0 0.0 0.00 0.00 0.00 64 1010.6
20260831112433 65 298 0.0 0.0 0.00 0.00 0.00 64 1010.6
20260831111935 65 298 0.0 0.0 0.00 0.00 0.00 63 1010.6
20260831111506 65 298 0.0 0.0 0.00 0.00 0.00 63 1010.6
20260831111451 65 298 0.0 0.0 0.00 0.00 0.00 63 1010.6
20260831110434 65 298 0.0 0.0 0.00 0.00 0.00 62 1010.6
20260831105934 66 298 0.0 0.0 0.00 0.00 0.00 62 1010.5
20260831105432 66 298 0.0 0.0 0.00 0.00 0.00 61 1010.6
20260831104920 66 298 0.0 0.0 0.00 0.00 0.00 61 1010.6
20260831104418 66 298 0.0 0.0 0.00 0.00 0.00 61 1010.7
20260831103915 66 298 0.0 0.0 0.00 0.00 0.00 60 1010.6
20260831103411 66 298 0.0 0.0 0.00 0.00 0.00 60 1010.6
20260831102904 67 298 0.0 0.0 0.00 0.00 0.00 60 1010.4
20260831102404 67 298 0.0 0.0 0.00 0.00 0.00 59 1010.4
20260831101904 67 298 0.0 0.0 0.00 0.00 0.00 59 1010.4
20260831101404 67 298 0.0 0.0 0.00 0.00 0.00 59 1010.4
20260831100903 67 298 0.0 0.0 0.00 0.00 0.00 58 1010.4
20260831100433 68 298 0.0 0.0 0.00 0.00 0.00 58 1010.4
20260831100420 67 298 0.0 0.0 0.00 0.00 0.00 58 1010.4
20260831095402 68 298 0.0 0.0 0.00 0.00 0.00 57 1010.4
20260831094903 68 298 0.0 0.0 0.00 0.00 0.00 56 1010.4
20260831094404 68 298 0.0 0.0 0.00 0.00 0.00 56 1010.3
20260831093859 68 298 0.0 1.0 0.00 0.00 0.00 56 1010.1
20260831093353 69 298 0.0 7.0 0.00 0.00 0.00 56 1010.2
20260831092852 69 290 0.0 7.0 0.00 0.00 0.00 55 1010.2
20260831092347 69 294 0.0 1.0 0.00 0.00 0.00 55 1010.2
20260831091849 69 300 0.0 1.0 0.00 0.00 0.00 55 1010.2
20260831091347 69 321 0.0 0.0 0.00 0.00 0.00 55 1010.1
20260831090845 69 321 0.0 0.0 0.00 0.00 0.00 55 1010.2
20260831090336 69 321 0.0 0.0 0.00 0.00 0.00 55 1010.2
20260831085833 69 321 0.0 0.0 0.00 0.00 0.00 54 1010.1
20260831085333 70 321 0.0 1.0 0.00 0.00 0.00 54 1010.1
20260831084833 70 321 0.0 4.0 0.00 0.00 0.00 53 1010.1
20260831084332 70 307 0.0 4.0 0.00 0.00 0.00 53 1010.2
20260831084118 70 309 0.0 0.0 0.00 0.00 0.00 53 1010.2
20260831083333 70 309 0.0 2.0 0.00 0.00 0.00 52 1010.2
20260831082833 70 309 0.0 2.0 0.00 0.00 0.00 52 1010.2
20260831082332 71 309 0.0 0.0 0.00 0.00 0.00 52 1010.2
20260831082116 71 309 0.0 0.0 0.00 0.00 0.00 51 1010.3
20260831081332 71 309 0.0 0.0 0.00 0.00 0.00 51 1010.3
20260831081121 71 309 0.0 0.0 0.00 0.00 0.00 50 1010.3
20260831080334 71 309 0.0 0.0 0.00 0.00 0.00 50 1010.2
20260831075833 72 309 0.0 0.0 0.00 0.00 0.00 49 1010.2
20260831075334 72 309 0.0 0.0 0.00 0.00 0.00 49 1010.3
20260831074833 72 309 0.0 1.0 0.00 0.00 0.00 48 1010.4
20260831074333 72 309 0.0 1.0 0.00 0.00 0.00 48 1010.3
20260831073833 73 306 0.0 0.0 0.00 0.00 0.00 47 1010.3
20260831073329 73 306 0.0 0.0 0.00 0.00 0.00 47 1010.3
20260831072829 73 306 0.0 0.0 0.00 0.00 0.00 46 1010.3
20260831072329 73 306 0.0 0.0 0.00 0.00 0.00 45 1010.2
20260831071826 73 306 0.0 0.0 0.00 0.00 0.00 44 1010.2
20260831071320 74 306 0.0 0.0 0.00 0.00 0.00 44 1010.3
20260831070821 74 306 0.0 0.0 0.00 0.00 0.00 44 1010.2
20260831070427 74 306 0.0 0.0 0.00 0.00 0.00 42 1010.3
20260831070420 75 306 0.0 0.0 0.00 0.00 0.00 42 1010.3
20260831070357 74 306 0.0 0.0 0.00 0.00 0.00 43 1010.2
20260831064807 75 306 0.0 0.0 0.00 0.00 0.00 41 1010.2
20260831064305 75 306 0.0 0.0 0.00 0.00 0.00 41 1010.2
20260831063803 76 306 0.0 0.0 0.00 0.00 0.00 40 1010.1
20260831063304 76 306 0.0 0.0 0.00 0.00 0.00 39 1010.1
20260831062801 76 306 0.0 0.0 0.00 0.00 0.00 38 1010.1
20260831062305 76 306 0.0 0.0 0.00 0.00 0.00 37 1010.1
20260831062051 76 306 0.0 0.0 0.00 0.00 0.00 37 1010.2
20260831061303 77 306 0.0 0.0 0.00 0.00 0.00 36 1010.2
20260831060804 77 306 0.0 0.0 0.00 0.00 0.00 36 1010.2
20260831060304 77 306 0.0 0.0 0.00 0.00 0.00 36 1010.2
20260831055801 78 306 0.0 0.0 0.00 0.00 0.00 36 1010.2
20260831055306 78 306 0.0 0.0 0.00 0.00 0.00 35 1010.1
20260831054803 78 306 0.0 0.0 0.00 0.00 0.00 35 1010.1
20260831054547 78 306 0.0 0.0 0.00 0.00 0.00 35 1010.1
20260831053758 78 306 0.0 0.0 0.00 0.00 0.00 34 1010.1
20260831053333 79 306 0.0 0.0 0.00 0.00 0.00 34 1010.1
20260831053319 78 306 0.0 0.0 0.00 0.00 0.00 34 1010.1
20260831052250 79 306 0.0 0.0 0.00 0.00 0.00 34 1010.1
20260831052026 79 306 0.0 0.0 0.00 0.00 0.00 34 1010.2
20260831051241 79 306 0.0 0.0 0.00 0.00 0.00 34 1010.2
20260831050733 80 306 0.0 0.0 0.00 0.00 0.00 34 1010.1
20260831050233 80 306 0.0 0.0 0.00 0.00 0.00 34 1010.1
20260831045733 80 306 0.0 0.0 0.00 0.00 0.00 33 1010.1
20260831045233 80 306 0.0 0.0 0.00 0.00 0.00 33 1010.2
20260831044729 81 306 0.0 0.0 0.00 0.00 0.00 33 1010.1
20260831044224 81 306 0.0 0.0 0.00 0.00 0.00 33 1010.1
20260831043719 81 306 0.0 4.0 0.00 0.00 0.00 33 1010.1